K3RTA-2 Weather Reports


Display with metric or nautical units.
time (UTC)temp
F
wind
direction
speed
MPH
gust
MPH
rain 1hr
in
rain 24hr
in
rain mn
in
humidity
%
barometer
mb
20260902052504 72 161 0.0 2.0 0.89 1.53 1.53 98 1016.5
20260902051504 72 183 1.0 5.0 0.89 1.53 1.53 98 1017.0
20260902051004 71 108 1.0 12.0 0.87 1.51 1.51 97 1017.3
20260902050504 71 79 2.0 12.0 0.81 1.45 1.45 97 1017.5
20260902050007 71 62 3.0 12.0 0.70 1.34 1.34 97 1017.5
20260902045503 71 49 3.0 12.0 0.41 1.05 1.05 97 1017.8
20260902045004 72 39 2.0 12.0 0.24 0.88 0.88 97 1018.0
20260902044504 72 34 3.0 8.0 0.11 0.75 0.75 97 1017.7
20260902044005 72 21 2.0 5.0 0.00 0.64 0.64 97 1018.2
20260902043504 72 46 0.0 6.0 0.00 0.64 0.64 97 1016.9
20260902043004 72 268 1.0 6.0 0.00 0.64 0.64 97 1016.6
20260902042504 72 73 2.0 5.0 0.00 0.64 0.64 97 1016.6
20260902042004 72 86 1.0 5.0 0.00 0.64 0.64 97 1016.7
20260902041505 72 116 1.0 6.0 0.00 0.64 0.64 97 1016.7
20260902041004 72 93 1.0 9.0 0.01 0.64 0.64 97 1016.7
20260902040504 72 91 2.0 9.0 0.04 0.64 0.64 97 1016.7
20260902040004 72 79 0.0 12.0 0.27 0.64 0.64 97 1016.4
20260902035504 72 126 3.0 12.0 0.44 0.64 0.64 97 1016.6
20260902035005 72 70 2.0 6.0 0.59 0.64 0.64 97 1016.7
20260902034504 72 316 0.0 1.0 0.64 0.64 0.64 97 1016.2
20260902034005 71 209 0.0 1.0 0.64 0.64 0.64 97 1016.1
20260902033503 71 209 0.0 1.0 0.64 0.64 0.64 97 1016.0
20260902033004 72 221 0.0 1.0 0.64 0.64 0.64 97 1016.1
20260902030504 72 38 4.0 21.0 0.60 0.60 0.60 95 1017.3
20260902025004 79 358 9.0 21.0 0.05 0.05 0.05 85 1017.2
20260902024004 81 11 7.0 17.0 0.00 0.00 0.00 83 1016.2
20260902023504 79 17 3.0 16.0 0.00 0.00 0.00 86 1016.0
20260902023003 80 38 7.0 16.0 0.00 0.00 0.00 87 1016.2
20260902022504 80 75 0.0 0.0 0.00 0.00 0.00 91 1015.2
20260902022004 80 179 0.0 0.0 0.00 0.00 0.00 91 1014.9
20260902021004 80 148 0.0 2.0 0.00 0.00 0.00 91 1014.5
20260902020504 80 138 0.0 2.0 0.00 0.00 0.00 92 1014.6
20260902020004 80 131 0.0 2.0 0.00 0.00 0.00 92 1014.7
20260902015504 80 267 0.0 1.0 0.00 0.00 0.00 92 1014.5
20260902015004 80 267 0.0 1.0 0.00 0.00 0.00 92 1014.2
20260902014504 80 110 0.0 1.0 0.00 0.00 0.00 92 1014.5
20260902014004 79 186 0.0 0.0 0.00 0.00 0.00 92 1014.6
20260902013505 79 206 0.0 0.0 0.00 0.00 0.00 92 1014.3
20260902013005 79 206 0.0 1.0 0.00 0.00 0.00 92 1014.3
20260902012004 80 160 0.0 1.0 0.00 0.00 0.00 92 1014.0
20260902011504 80 147 0.0 0.0 0.00 0.00 0.00 92 1014.0
20260902011005 80 147 0.0 0.0 0.00 0.00 0.00 92 1014.1
20260902010504 80 148 0.0 0.0 0.00 0.00 0.00 91 1014.1
20260902010005 80 147 0.0 0.0 0.00 0.00 0.00 91 1014.2
20260902005504 80 147 0.0 0.0 0.00 0.00 0.00 91 1014.2
20260902005005 80 147 0.0 0.0 0.00 0.00 0.00 91 1014.2
20260902004504 80 148 0.0 0.0 0.00 0.00 0.00 91 1014.1
20260902004003 80 147 0.0 0.0 0.00 0.00 0.00 90 1014.4
20260902003504 81 147 0.0 0.0 0.00 0.00 0.00 90 1014.1
20260902002505 81 147 0.0 0.0 0.00 0.00 0.00 90 1013.6
20260902002004 81 147 0.0 0.0 0.00 0.00 0.00 90 1013.5
20260902001004 81 148 0.0 0.0 0.00 0.00 0.00 89 1013.3
20260902000504 82 148 0.0 0.0 0.00 0.00 0.00 89 1013.5
20260902000004 82 148 0.0 0.0 0.00 0.00 0.00 89 1013.7
20260901235504 82 148 0.0 0.0 0.00 0.00 0.00 88 1013.8
20260901235005 82 148 0.0 0.0 0.00 0.00 0.00 88 1013.9
20260901234504 83 148 0.0 0.0 0.00 0.00 0.00 87 1013.9
20260901234004 83 147 0.0 0.0 0.00 0.00 0.00 86 1013.9
20260901233004 83 147 0.0 0.0 0.00 0.00 0.00 86 1013.8
20260901232504 83 147 0.0 0.0 0.00 0.00 0.00 85 1013.7
20260901231504 84 147 0.0 0.0 0.00 0.00 0.00 84 1014.0
20260901231004 85 147 0.0 0.0 0.00 0.00 0.00 83 1014.0
20260901230504 85 147 0.0 0.0 0.00 0.00 0.00 82 1014.0
20260901230004 85 147 0.0 0.0 0.00 0.00 0.00 81 1014.0
20260901225004 86 147 0.0 0.0 0.00 0.00 0.00 79 1014.0
20260901224505 87 148 0.0 0.0 0.00 0.00 0.00 78 1014.0
20260901224004 87 149 0.0 0.0 0.00 0.00 0.00 77 1014.0
20260901223504 87 149 0.0 0.0 0.00 0.00 0.00 76 1013.9
20260901223005 87 148 0.0 1.0 0.00 0.00 0.00 75 1014.0
20260901222504 88 154 0.0 1.0 0.00 0.00 0.00 74 1014.0
20260901222004 88 155 0.0 1.0 0.00 0.00 0.00 74 1014.1
20260901221504 88 148 0.0 1.0 0.00 0.00 0.00 73 1014.2
20260901221004 88 118 0.0 1.0 0.00 0.00 0.00 72 1014.1
20260901220503 89 144 0.0 1.0 0.00 0.00 0.00 71 1014.2
20260901220005 89 158 0.0 1.0 0.00 0.00 0.00 72 1014.3
20260901215504 90 354 0.0 1.0 0.00 0.00 0.00 71 1014.2
20260901215003 90 122 0.0 3.0 0.00 0.00 0.00 70 1014.2
20260901214004 90 142 0.0 3.0 0.00 0.00 0.00 69 1014.2
20260901213504 91 118 2.0 3.0 0.00 0.00 0.00 68 1014.3
20260901212504 91 95 0.0 5.0 0.00 0.00 0.00 69 1014.3
20260901212003 92 130 1.0 3.0 0.00 0.00 0.00 68 1014.3
20260901211004 92 57 0.0 3.0 0.00 0.00 0.00 69 1014.3
20260901210504 92 79 0.0 3.0 0.00 0.00 0.00 67 1014.3
20260901210004 92 110 0.0 5.0 0.00 0.00 0.00 67 1014.4
20260901205005 92 290 1.0 5.0 0.00 0.00 0.00 65 1014.4
20260901204505 92 256 0.0 3.0 0.00 0.00 0.00 67 1014.4
20260901204004 91 88 1.0 5.0 0.00 0.00 0.00 66 1014.4
20260901203504 91 83 0.0 5.0 0.00 0.00 0.00 67 1014.4
20260901203004 91 42 1.0 5.0 0.00 0.00 0.00 68 1014.4
20260901202504 91 1 0.0 2.0 0.00 0.00 0.00 69 1014.4
20260901202004 91 53 0.0 2.0 0.00 0.00 0.00 68 1014.5
20260901201504 91 26 0.0 2.0 0.00 0.00 0.00 69 1014.6
20260901201004 90 80 0.0 1.0 0.00 0.00 0.00 71 1014.7
20260901200504 90 101 0.0 2.0 0.00 0.00 0.00 70 1014.8
20260901200004 90 61 0.0 3.0 0.00 0.00 0.00 68 1014.9
20260901195005 91 75 1.0 3.0 0.00 0.00 0.00 67 1015.0
20260901194503 91 105 0.0 3.0 0.00 0.00 0.00 69 1014.9
20260901194004 91 165 1.0 3.0 0.00 0.00 0.00 68 1015.0
20260901193504 91 300 0.0 2.0 0.00 0.00 0.00 72 1015.0
20260901192504 91 102 0.0 1.0 0.00 0.00 0.00 74 1015.0
20260901192004 91 106 0.0 1.0 0.00 0.00 0.00 74 1014.9
20260901191504 91 167 0.0 0.0 0.00 0.00 0.00 75 1015.0
20260901191004 90 167 0.0 0.0 0.00 0.00 0.00 75 1015.0
20260901190004 89 167 0.0 0.0 0.00 0.00 0.00 76 1015.0
20260901185503 89 167 0.0 0.0 0.00 0.00 0.00 77 1015.0
20260901185004 89 167 0.0 0.0 0.00 0.00 0.00 76 1015.2
20260901184505 89 167 0.0 0.0 0.00 0.00 0.00 76 1015.2
20260901183504 90 169 0.0 2.0 0.00 0.00 0.00 73 1015.0
20260901183004 91 165 1.0 2.0 0.00 0.00 0.00 71 1015.0
20260901182503 91 314 0.0 2.0 0.00 0.00 0.00 72 1015.1
20260901182004 90 70 0.0 2.0 0.00 0.00 0.00 74 1015.2
20260901181505 90 3 0.0 2.0 0.00 0.00 0.00 73 1015.2
20260901181004 90 274 0.0 3.0 0.00 0.00 0.00 74 1015.2
20260901180503 89 107 0.0 3.0 0.00 0.00 0.00 75 1015.3
20260901180004 90 306 0.0 2.0 0.00 0.00 0.00 74 1015.4
20260901175504 90 92 0.0 3.0 0.00 0.00 0.00 74 1015.4
20260901175004 90 77 1.0 3.0 0.00 0.00 0.00 73 1015.4
20260901174503 90 51 0.0 3.0 0.00 0.00 0.00 73 1015.5
20260901174006 91 278 1.0 3.0 0.00 0.00 0.00 71 1015.5
20260901173504 91 82 1.0 3.0 0.00 0.00 0.00 72 1015.3
20260901173004 92 271 1.0 3.0 0.00 0.00 0.00 71 1015.4
20260901172504 92 319 1.0 3.0 0.00 0.00 0.00 70 1015.5
20260901172003 92 44 1.0 3.0 0.00 0.00 0.00 70 1015.4
20260901171504 92 356 1.0 6.0 0.00 0.00 0.00 71 1015.6
20260901171004 91 26 1.0 6.0 0.00 0.00 0.00 73 1015.7
20260901170503 92 310 1.0 6.0 0.00 0.00 0.00 72 1015.7
20260901170004 92 83 0.0 2.0 0.00 0.00 0.00 72 1015.7
20260901165005 91 260 2.0 5.0 0.00 0.00 0.00 73 1015.7
20260901164504 91 93 1.0 3.0 0.00 0.00 0.00 72 1015.8
20260901164004 90 143 1.0 5.0 0.00 0.00 0.00 73 1015.9
20260901163504 90 178 1.0 6.0 0.00 0.00 0.00 74 1016.0
20260901163003 90 36 1.0 6.0 0.00 0.00 0.00 74 1016.0
20260901162004 90 284 1.0 5.0 0.00 0.00 0.00 73 1016.0
20260901161504 89 59 0.0 5.0 0.00 0.00 0.00 74 1016.1
20260901161006 89 263 1.0 5.0 0.00 0.00 0.00 75 1016.2
20260901160504 89 58 1.0 6.0 0.00 0.00 0.00 75 1016.3
20260901160004 88 151 1.0 6.0 0.00 0.00 0.00 75 1016.3
20260901155504 88 150 2.0 6.0 0.00 0.00 0.00 75 1016.2
20260901154004 88 180 2.0 5.0 0.00 0.00 0.00 74 1016.4
20260901153504 89 151 1.0 6.0 0.00 0.00 0.00 76 1016.3
20260901152004 88 115 0.0 5.0 0.00 0.00 0.00 77 1016.5
20260901151504 88 193 1.0 5.0 0.00 0.00 0.00 75 1016.6
20260901151004 89 38 1.0 3.0 0.00 0.00 0.00 75 1016.6
20260901150504 89 163 1.0 3.0 0.00 0.00 0.00 75 1016.5
20260901150003 89 115 0.0 3.0 0.00 0.00 0.00 74 1016.5
20260901145504 89 149 1.0 6.0 0.00 0.00 0.00 74 1016.5
20260901145004 88 252 1.0 6.0 0.00 0.00 0.00 76 1016.6
20260901144504 88 238 1.0 5.0 0.00 0.00 0.00 77 1016.6
20260901143504 87 128 1.0 5.0 0.00 0.00 0.00 78 1016.8
20260901143004 87 191 0.0 5.0 0.00 0.00 0.00 78 1016.8
20260901142504 87 172 0.0 5.0 0.00 0.00 0.00 78 1016.8
20260901142004 87 105 2.0 5.0 0.00 0.00 0.00 78 1016.7
20260901141505 87 219 1.0 2.0 0.00 0.00 0.00 79 1016.8
20260901141004 87 160 0.0 1.0 0.00 0.00 0.00 79 1016.9
20260901140504 86 35 0.0 1.0 0.00 0.00 0.00 80 1016.9
20260901140004 86 350 0.0 2.0 0.00 0.00 0.00 80 1017.0
20260901135503 86 187 0.0 2.0 0.00 0.00 0.00 82 1017.1
20260901134505 85 137 0.0 2.0 0.00 0.00 0.00 83 1017.0
20260901134004 84 94 0.0 3.0 0.00 0.00 0.00 85 1017.0
20260901133504 84 75 0.0 3.0 0.00 0.00 0.00 86 1017.1
20260901133004 84 329 1.0 3.0 0.00 0.00 0.00 85 1017.1
20260901132504 83 249 1.0 3.0 0.00 0.00 0.00 85 1017.0
20260901132004 83 86 0.0 3.0 0.00 0.00 0.00 87 1017.0
20260901131004 82 330 0.0 2.0 0.00 0.00 0.00 89 1017.0
20260901130504 82 148 0.0 2.0 0.00 0.00 0.00 90 1017.0
20260901130004 82 202 0.0 3.0 0.00 0.00 0.00 92 1017.1
20260901125504 81 293 1.0 3.0 0.00 0.00 0.00 93 1017.1
20260901124004 79 218 0.0 2.0 0.00 0.00 0.00 96 1017.2
20260901123504 79 199 0.0 2.0 0.00 0.00 0.00 96 1017.3
20260901122504 78 61 0.0 2.0 0.00 0.00 0.00 98 1017.3
20260901122004 78 124 0.0 1.0 0.00 0.00 0.00 98 1017.4
20260901121511 77 136 0.0 1.0 0.00 0.00 0.00 98 1017.4
20260901120504 76 120 0.0 1.0 0.00 0.00 0.00 98 1017.3
20260901120003 76 124 0.0 1.0 0.00 0.00 0.00 98 1017.3
20260901115004 75 127 0.0 1.0 0.00 0.00 0.00 98 1017.4
20260901114503 75 146 0.0 0.0 0.00 0.00 0.00 98 1017.3
20260901114005 74 146 0.0 0.0 0.00 0.00 0.00 98 1017.3
20260901113504 73 146 0.0 0.0 0.00 0.00 0.00 98 1017.3
20260901113004 73 146 0.0 0.0 0.00 0.00 0.00 98 1017.3
20260901112504 73 146 0.0 0.0 0.00 0.00 0.00 98 1017.3
20260901112004 73 146 0.0 0.0 0.00 0.00 0.00 98 1017.1
20260901111504 72 146 0.0 0.0 0.00 0.00 0.00 98 1017.0
20260901111004 72 147 0.0 0.0 0.00 0.00 0.00 98 1016.8
20260901110504 72 147 0.0 0.0 0.00 0.00 0.00 98 1016.9
20260901110004 72 147 0.0 0.0 0.00 0.00 0.00 98 1016.7
20260901105504 72 147 0.0 0.0 0.00 0.00 0.00 98 1016.7
20260901104004 72 147 0.0 0.0 0.00 0.00 0.00 98 1016.8
20260901103504 72 147 0.0 0.0 0.00 0.00 0.00 98 1016.9
20260901103004 72 147 0.0 0.0 0.00 0.00 0.00 98 1016.9
20260901102504 72 148 0.0 0.0 0.00 0.00 0.00 98 1016.9
20260901102004 71 148 0.0 0.0 0.00 0.00 0.00 98 1016.8
20260901101503 71 158 0.0 0.0 0.00 0.00 0.00 98 1016.9
20260901101004 71 158 0.0 1.0 0.00 0.00 0.00 98 1016.9
20260901100504 71 158 0.0 1.0 0.00 0.00 0.00 98 1016.9
20260901095504 71 148 0.0 0.0 0.00 0.00 0.00 98 1016.8
20260901095004 71 148 0.0 0.0 0.00 0.00 0.00 98 1016.7
20260901094504 71 148 0.0 0.0 0.00 0.00 0.00 98 1016.7
20260901094004 71 148 0.0 0.0 0.00 0.00 0.00 98 1016.7
20260901093504 71 148 0.0 0.0 0.00 0.00 0.00 98 1016.8
20260901092503 71 148 0.0 0.0 0.00 0.00 0.00 98 1016.9
20260901092005 71 148 0.0 0.0 0.00 0.00 0.00 98 1016.8
20260901091004 71 148 0.0 0.0 0.00 0.00 0.00 98 1016.7
20260901090505 71 148 0.0 0.0 0.00 0.00 0.00 98 1016.7
20260901090004 71 148 0.0 0.0 0.00 0.00 0.00 98 1016.8
20260901085504 71 148 0.0 0.0 0.00 0.00 0.00 98 1016.8
20260901084505 71 148 0.0 0.0 0.00 0.00 0.00 98 1016.9
20260901084003 71 148 0.0 0.0 0.00 0.00 0.00 98 1017.0
20260901083503 71 148 0.0 0.0 0.00 0.00 0.00 98 1017.0
20260901083004 71 148 0.0 0.0 0.00 0.00 0.00 98 1016.8
20260901082003 72 148 0.0 0.0 0.00 0.00 0.00 98 1016.8
20260901081004 72 148 0.0 0.0 0.00 0.00 0.00 98 1016.9
20260901080504 72 148 0.0 0.0 0.00 0.00 0.00 98 1016.9
20260901080004 72 148 0.0 0.0 0.00 0.00 0.00 98 1016.9
20260901075504 72 148 0.0 0.0 0.00 0.00 0.00 98 1017.0
20260901075004 72 148 0.0 0.0 0.00 0.00 0.00 98 1017.0
20260901074004 72 148 0.0 0.0 0.00 0.00 0.00 98 1017.1
20260901073504 72 148 0.0 0.0 0.00 0.00 0.00 97 1017.0
20260901073004 72 148 0.0 0.0 0.00 0.00 0.00 97 1017.1
20260901072504 72 148 0.0 0.0 0.00 0.00 0.00 97 1017.0
20260901071004 72 148 0.0 0.0 0.00 0.00 0.00 97 1017.1
20260901070504 72 148 0.0 0.0 0.00 0.00 0.00 97 1017.0
20260901065504 72 148 0.0 0.0 0.00 0.00 0.00 97 1017.1
20260901065004 72 148 0.0 0.0 0.00 0.00 0.00 97 1017.1
20260901064503 72 148 0.0 0.0 0.00 0.00 0.00 97 1017.2
20260901064004 72 148 0.0 0.0 0.00 0.00 0.00 97 1017.3
20260901063504 72 148 0.0 0.0 0.00 0.00 0.00 97 1017.3
20260901062504 72 148 0.0 0.0 0.00 0.00 0.00 97 1017.4
20260901062004 72 148 0.0 0.0 0.00 0.00 0.00 97 1017.5
20260901061504 72 148 0.0 0.0 0.00 0.00 0.00 97 1017.5
20260901061005 72 148 0.0 0.0 0.00 0.00 0.00 97 1017.5
20260901060504 72 148 0.0 0.0 0.00 0.00 0.00 97 1017.7
20260901060004 72 148 0.0 0.0 0.00 0.00 0.00 97 1017.7
20260901055004 73 148 0.0 0.0 0.00 0.00 0.00 97 1017.8
20260901054004 73 148 0.0 0.0 0.00 0.00 0.00 97 1018.1
20260901053503 73 148 0.0 0.0 0.00 0.00 0.00 97 1018.1